User: anonymous   Login
Location: Nebraska Star Party
(42.6000°N, 100.8833°W)
Time: 08:22:30
(UTC-05:00)
Language:

Iridium 37 - Orbit

View from above orbital plane
View from above orbital plane
View from above satellite
View from above satellite

Ground track
Ground track

The orbit data is extracted from the following two-line orbital elements,

1 24968U 97056D   16182.33691654  .00000170  00000-0  53473-4 0  9995
2 24968  86.3981 105.9851 0002253  85.9037 274.2416 14.34218854982105
Epoch (UTC): 30 June 2016 08:05:09
Eccentricity: 0.0002253
inclination: 86.3981°
perigee height: 776 km
apogee height: 779 km
right ascension of ascending node: 105.9851°
argument of perigee: 85.9037°
revolutions per day: 14.34218854
mean anomaly at epoch: 274.2416°
orbit number at epoch: 98210

The dashed part of the orbit path shows where the satellite is in the earth's shadow,  

DLR